Emporia, Virginia, United States (23847)
Lat: 36.69N, Lon: 77.54W
Wx Zone: VAZ087
Local Info
Past Weather Observations for Sunday, August 24, 2014

NOTE: This archive is for the closest National Weather Service station to Emporia. Information may differ from the station used for current weather conditions.

Click here for Long-term Archive

Time Weather Temperature Dewpoint Humidity Pressure Winds Precip Visibility
23:55
Clear
59°F / 15°C 57°F / 14°C 94% 30.15 in
(1021 mb)
NW 4.6 mph
(NW 7 kph)
- 10SM
23:35
Clear
59°F / 15°C 57°F / 14°C 94% 30.15 in
(1021 mb)
NW 3.5 mph
(NW 6 kph)
- 10SM
23:15
Clear
59°F / 15°C 57°F / 14°C 94% 30.12 in
(1020 mb)
NW 3.5 mph
(NW 6 kph)
- 10SM
22:55
Clear
59°F / 15°C 59°F / 15°C 100% 30.15 in
(1021 mb)
Calm - 10SM
22:35
Clear
59°F / 15°C 59°F / 15°C 100% 30.15 in
(1021 mb)
NE 3.5 mph
(NE 6 kph)
- 10SM
22:15
Clear
61°F / 16°C 59°F / 15°C 94% 30.12 in
(1020 mb)
Calm - 10SM
21:55
Clear
61°F / 16°C 59°F / 15°C 94% 30.12 in
(1020 mb)
Calm - 10SM
21:35
Clear
61°F / 16°C 59°F / 15°C 94% 30.12 in
(1020 mb)
NE 3.5 mph
(NE 6 kph)
- 10SM
21:15
Clear
61°F / 16°C 59°F / 15°C 94% 30.12 in
(1020 mb)
NE 3.5 mph
(NE 6 kph)
- 10SM
20:55
Clear
63°F / 17°C 59°F / 15°C 88% 30.12 in
(1020 mb)
NE 3.5 mph
(NE 6 kph)
- 10SM
20:35
Clear
61°F / 16°C 59°F / 15°C 94% 30.12 in
(1020 mb)
Calm - 10SM
20:15
Clear
61°F / 16°C 59°F / 15°C 94% 30.12 in
(1020 mb)
Calm - 10SM
19:55
Clear
64°F / 18°C 61°F / 16°C 88% 30.12 in
(1020 mb)
Calm - 10SM
19:35
Clear
64°F / 18°C 61°F / 16°C 88% 30.12 in
(1020 mb)
Calm - 10SM
19:15
Clear
66°F / 19°C 61°F / 16°C 83% 30.09 in
(1019 mb)
Calm - 10SM
18:55
Clear
68°F / 20°C 61°F / 16°C 78% 30.09 in
(1019 mb)
Calm - 10SM
18:35
Partly Cloudy
70°F / 21°C 61°F / 16°C 73% 30.09 in
(1019 mb)
Calm - 10SM
18:15
Mostly Cloudy
72°F / 22°C 61°F / 16°C 69% 30.09 in
(1019 mb)
NE 4.6 mph
(NE 7 kph)
- 10SM
17:55
Partly Cloudy
72°F / 22°C 61°F / 16°C 69% 30.09 in
(1019 mb)
NE 4.6 mph
(NE 7 kph)
- 10SM
17:35
Clear
72°F / 22°C 59°F / 15°C 65% 30.09 in
(1019 mb)
NNE 4.6 mph
(NNE 7 kph)
- 10SM
17:15
Partly Cloudy
73°F / 23°C 59°F / 15°C 61% 30.09 in
(1019 mb)
NE 6.9 mph
(NE 11 kph)
- 10SM
16:55
Mostly Cloudy
77°F / 25°C 61°F / 16°C 57% 30.09 in
(1019 mb)
N 4.6 mph
(N 7 kph)
- 10SM
16:35
Partly Cloudy
73°F / 23°C 61°F / 16°C 65% 30.09 in
(1019 mb)
N 5.8 mph
(N 9 kph)
- 10SM
16:15
Overcast
75°F / 24°C 61°F / 16°C 61% 30.09 in
(1019 mb)
N 4.6 mph
(N 7 kph)
- 10SM
15:55
Overcast
77°F / 25°C 61°F / 16°C 57% 30.09 in
(1019 mb)
N 5.8 mph
(N 9 kph)
- 10SM
15:35
Mostly Cloudy
73°F / 23°C 61°F / 16°C 65% 30.09 in
(1019 mb)
N 9.2 mph
(N 15 kph)
- 10SM
15:15
Overcast
75°F / 24°C 61°F / 16°C 61% 30.09 in
(1019 mb)
N 6.9 mph
(N 11 kph)
- 10SM
14:55
Overcast
73°F / 23°C 61°F / 16°C 65% 30.09 in
(1019 mb)
N 9.2 mph
(N 15 kph)
- 10SM
14:35
Overcast
75°F / 24°C 61°F / 16°C 61% 30.09 in
(1019 mb)
NE 4.6 mph
(NE 7 kph)
- 10SM
14:15
Overcast
75°F / 24°C 61°F / 16°C 61% 30.09 in
(1019 mb)
NNW 6.9 mph
(NNW 11 kph)
- 10SM
13:55
Overcast
75°F / 24°C 61°F / 16°C 61% 30.09 in
(1019 mb)
N 6.9 mph
(N 11 kph)
- 10SM
13:35
Mostly Cloudy
75°F / 24°C 61°F / 16°C 61% 30.12 in
(1020 mb)
N 8.1 mph
(N 13 kph)
- 10SM
13:15
Overcast
75°F / 24°C 61°F / 16°C 61% 30.12 in
(1020 mb)
NE 9.2 mph
(NE 15 kph)
- 10SM
12:55
Overcast
75°F / 24°C 61°F / 16°C 61% 30.12 in
(1020 mb)
NNE 8.1 mph
(NNE 13 kph)
- 10SM
12:35
Overcast
73°F / 23°C 63°F / 17°C 69% 30.12 in
(1020 mb)
NNE 8.1 mph
(NNE 13 kph)
- 10SM
12:15
Overcast
75°F / 24°C 61°F / 16°C 61% 30.12 in
(1020 mb)
NE 8.1 mph
(NE 13 kph)
- 10SM
11:55
Mostly Cloudy
77°F / 25°C 61°F / 16°C 57% 30.12 in
(1020 mb)
N 9.2 mph
(N 15 kph)
- 10SM
11:35
Partly Cloudy
77°F / 25°C 61°F / 16°C 57% 30.12 in
(1020 mb)
NNE 9.2 mph
(NNE 15 kph)
- 10SM
11:15
Partly Cloudy
77°F / 25°C 61°F / 16°C 57% 30.12 in
(1020 mb)
NE 9.2 mph
(NE 15 kph)
- 10SM
10:55
Mostly Cloudy
73°F / 23°C 63°F / 17°C 69% 30.12 in
(1020 mb)
N 8.1 mph
(N 13 kph)
- 10SM
10:35
Partly Cloudy
75°F / 24°C 63°F / 17°C 65% 30.12 in
(1020 mb)
N 9.2 mph
(N 15 kph)
- 10SM
10:15
Mostly Cloudy
73°F / 23°C 64°F / 18°C 74% 30.12 in
(1020 mb)
N 6.9 mph
(N 11 kph)
- 10SM
09:55
Partly Cloudy
77°F / 25°C 64°F / 18°C 65% 30.12 in
(1020 mb)
NE 9.2 mph
(NE 15 kph)
- 10SM
09:35
Partly Cloudy
73°F / 23°C 63°F / 17°C 69% 30.12 in
(1020 mb)
NE 8.1 mph
(NE 13 kph)
- 10SM
09:15
Mostly Cloudy
73°F / 23°C 64°F / 18°C 74% 30.09 in
(1019 mb)
N 6.9 mph
(N 11 kph)
- 10SM
08:55
Partly Cloudy
73°F / 23°C 64°F / 18°C 74% 30.09 in
(1019 mb)
N 10.4 mph
(N 17 kph)
- 10SM
08:35
Partly Cloudy
73°F / 23°C 64°F / 18°C 74% 30.09 in
(1019 mb)
N 11.5 mph
(N 19 kph)
-
08:15
Partly Cloudy
72°F / 22°C 64°F / 18°C 78% 30.09 in
(1019 mb)
NNE 10.4 mph
(NNE 17 kph)
- 10SM
07:55
Clear
72°F / 22°C 64°F / 18°C 78% 30.09 in
(1019 mb)
N 8.1 mph
(N 13 kph)
- 10SM
07:35
Clear
70°F / 21°C 64°F / 18°C 83% 30.09 in
(1019 mb)
N 9.2 mph
(N 15 kph)
- 10SM
07:15
Clear
68°F / 20°C 64°F / 18°C 88% 30.09 in
(1019 mb)
N 8.1 mph
(N 13 kph)
- 10SM
06:55
Clear
68°F / 20°C 64°F / 18°C 88% 30.09 in
(1019 mb)
NNW 5.8 mph
(NNW 9 kph)
- 10SM
06:35
Clear
66°F / 19°C 64°F / 18°C 94% 30.06 in
(1018 mb)
N 5.8 mph
(N 9 kph)
- 10SM
06:15
Clear
64°F / 18°C 64°F / 18°C 100% 30.06 in
(1018 mb)
NNW 4.6 mph
(NNW 7 kph)
- 10SM
05:55
Clear
64°F / 18°C 64°F / 18°C 100% 30.06 in
(1018 mb)
NW 5.8 mph
(NW 9 kph)
- 10SM
05:35
Clear
64°F / 18°C 64°F / 18°C 100% 30.06 in
(1018 mb)
NNW 4.6 mph
(NNW 7 kph)
- 10SM
05:15
Clear
64°F / 18°C 64°F / 18°C 100% 30.04 in
(1017 mb)
NNW 4.6 mph
(NNW 7 kph)
- 10SM
04:55
Clear
64°F / 18°C 64°F / 18°C 100% 30.04 in
(1017 mb)
NNW 4.6 mph
(NNW 7 kph)
- 10SM
04:35
Clear
64°F / 18°C 64°F / 18°C 100% 30.04 in
(1017 mb)
N 5.8 mph
(N 9 kph)
- 10SM
04:15
Partly Cloudy
66°F / 19°C 64°F / 18°C 94% 30.04 in
(1017 mb)
N 4.6 mph
(N 7 kph)
- 10SM
03:55
Mostly Cloudy
68°F / 20°C 64°F / 18°C 88% 30.04 in
(1017 mb)
N 5.8 mph
(N 9 kph)
- 10SM
03:35
Overcast
68°F / 20°C 66°F / 19°C 94% 30.04 in
(1017 mb)
N 5.8 mph
(N 9 kph)
- 10SM
03:15
Overcast
68°F / 20°C 66°F / 19°C 94% 30.04 in
(1017 mb)
NNW 4.6 mph
(NNW 7 kph)
- 10SM
02:55
Overcast
68°F / 20°C 68°F / 20°C 100% 30.04 in
(1017 mb)
NNW 5.8 mph
(NNW 9 kph)
- 10SM
02:35
Overcast
68°F / 20°C 68°F / 20°C 100% 30.04 in
(1017 mb)
NNW 5.8 mph
(NNW 9 kph)
- 10SM
02:15
Overcast
68°F / 20°C 68°F / 20°C 100% 30.04 in
(1017 mb)
NNW 5.8 mph
(NNW 9 kph)
- 10SM
01:55
Overcast
70°F / 21°C 68°F / 20°C 94% 30.04 in
(1017 mb)
NNW 4.6 mph
(NNW 7 kph)
- 10SM
01:35
Overcast
70°F / 21°C 68°F / 20°C 94% 30.04 in
(1017 mb)
NNW 4.6 mph
(NNW 7 kph)
- 10SM
01:15
Overcast
70°F / 21°C 68°F / 20°C 94% 30.04 in
(1017 mb)
Calm - 10SM
00:55
Overcast
70°F / 21°C 68°F / 20°C 94% 30.04 in
(1017 mb)
N 3.5 mph
(N 6 kph)
- 10SM
00:35
Overcast
70°F / 21°C 68°F / 20°C 94% 30.04 in
(1017 mb)
N 3.5 mph
(N 6 kph)
- 10SM
00:15
Overcast
70°F / 21°C 68°F / 20°C 94% 30.04 in
(1017 mb)
N 4.6 mph
(N 7 kph)
- 10SM
Time Weather Temperature Dewpoint Humidity Pressure Winds Precip Visibility


Weather for websites

WeatherForYou.com, LLC is not responsible for any damages or problems caused by this service. Current weather conditions are obtained from the closest station including government and personal stations which may have varying degrees of accuracy. Weather forecasts are derived from the NOAA NDFD. Like all things, this site belongs to Jesus Christ... He just trusts me to maintain it. If you have any questions or comments email webmaster@weatherforyou.com

Copyright © 2014, WeatherForYou.com LLC. All rights reserved.